Oceana NAS, VA

11:44 AM EDT on March 30, 2017 (GMT -0400)
Oceana Naval Air Station

Weather History for KNTU - December, 2013

Change the Weather History Date:

Saturday, December 14, 2013

  Actual Average Record
Temperature  
Mean Temperature 49 °F -  
Max Temperature 63 °F 51 °F 78 °F (2015)
Min Temperature 35 °F 35 °F 21 °F (2010)
Degree Days  
Heating Degree Days 16    
Moisture  
Dew Point 46 °F    
Average Humidity 82    
Maximum Humidity 96    
Minimum Humidity 56    
Precipitation  
Precipitation 1.16 in - - ()
Sea Level Pressure  
Sea Level Pressure 30.03 in    
Wind  
Wind Speed 7 mph (SSE)    
Max Wind Speed 25 mph    
Max Gust Speed 34 mph    
Visibility 8 miles    
Events Rain    
Averages and records for this station are not official NWS values.
T = Trace of Precipitation, MM = Missing Value Source: NWS Daily Summary

Daily Weather History Graph

Daily Weather History Graph

Search for Another Location

Airport or City:

Trip Planner

Search our weather history database for the weather conditions in past years. The results will help you decide how hot, cold, wet, or windy it might be!

Date:

Astronomy

Dec. 14, 2013 Rise Set
Actual Time 7:09 AM EST 4:48 PM EST
Civil Twilight 6:40 AM EST 5:17 PM EST
Nautical Twilight 6:07 AM EST 5:50 PM EST
Astronomical Twilight 5:36 AM EST 6:21 PM EST
Moon 3:06 PM EST (12/14) 4:30 AM EST (12/14)
Length of Visible Light 10h 37m
Length of Day
9h 39m
Waxing Gibbous, 93% of the Moon is Illuminated
Dec 14
Waxing Gibbous
Dec 17
Full
Dec 25
Last Quarter
Jan 1
New
Jan 7
First Quarter

Hourly Weather History & Observations

Time (EST) Temp. Windchill Dew Point Humidity Pressure Visibility Wind Dir Wind Speed Gust Speed Precip Events Conditions
12:56 AM 35.1 °F - 25.0 °F 67% 30.33 in 10.0 mi Calm Calm - N/A   Scattered Clouds
1:56 AM 35.1 °F - 25.0 °F 67% 30.33 in 10.0 mi Calm Calm - N/A   Mostly Cloudy
2:56 AM 35.1 °F - 27.0 °F 72% 30.34 in 10.0 mi Calm Calm - N/A   Mostly Cloudy
3:56 AM 36.0 °F - 28.9 °F 76% 30.33 in 10.0 mi Calm Calm - N/A   Overcast
4:56 AM 37.0 °F - 30.9 °F 79% 30.33 in 10.0 mi Calm Calm - N/A   Overcast
5:56 AM 37.9 °F 35.5 °F 30.0 °F 73% 30.35 in 10.0 mi ESE 3.5 mph - N/A   Overcast
6:56 AM 37.9 °F 35.5 °F 32.0 °F 79% 30.32 in 10.0 mi ENE 3.5 mph - N/A   Overcast
7:56 AM 39.0 °F - 33.1 °F 79% 30.35 in 10.0 mi Calm Calm - N/A   Overcast
8:56 AM 43.0 °F 39.5 °F 36.0 °F 76% 30.34 in 10.0 mi SE 5.8 mph - N/A   Overcast
9:56 AM 46.9 °F - 36.0 °F 66% 30.31 in 10.0 mi ESE 8.1 mph - N/A   Overcast
10:56 AM 48.9 °F - 34.0 °F 56% 30.30 in 10.0 mi SE 9.2 mph - N/A   Overcast
11:16 AM 48.9 °F - 36.0 °F 61% 30.27 in 10.0 mi SE 10.4 mph - 0.00 in Rain Light Rain
11:23 AM 48.9 °F - 36.0 °F 61% 30.26 in 10.0 mi SE 10.4 mph - 0.00 in   Overcast
11:56 AM 50.0 °F - 36.0 °F 59% 30.23 in 10.0 mi ESE 12.7 mph - 0.00 in   Overcast
12:56 PM 51.1 °F - 37.9 °F 61% 30.17 in 10.0 mi ESE 13.8 mph - N/A   Overcast
1:51 PM 50.0 °F - 42.8 °F 76% 30.12 in 10.0 mi ESE 13.8 mph - 0.00 in Rain Light Rain
1:56 PM 50.0 °F - 43.0 °F 77% 30.13 in 10.0 mi ESE 12.7 mph - 0.00 in Rain Light Rain
2:56 PM 50.0 °F - 46.0 °F 86% 30.07 in 10.0 mi East 13.8 mph - 0.01 in Rain Light Rain
3:56 PM 51.1 °F - 48.0 °F 89% 30.00 in 10.0 mi East 13.8 mph 21.9 mph 0.02 in Rain Light Rain
4:22 PM 52.0 °F - 48.9 °F 89% 29.98 in 10.0 mi ESE 17.3 mph 24.2 mph 0.00 in   Overcast
4:32 PM 52.0 °F - 48.9 °F 89% 29.97 in 10.0 mi ESE 16.1 mph - 0.00 in Rain Light Rain
4:56 PM 53.1 °F - 50.0 °F 89% 29.96 in 10.0 mi ESE 16.1 mph 24.2 mph 0.00 in Rain Light Rain
5:56 PM 54.0 °F - 52.0 °F 93% 29.94 in 5.0 mi SE 8.1 mph - 0.12 in Rain Rain
6:56 PM 55.9 °F - 53.1 °F 90% 29.88 in 6.0 mi SE 16.1 mph 23.0 mph 0.17 in Rain Rain
7:56 PM 57.0 °F - 55.0 °F 93% 29.83 in 9.0 mi SSE 17.3 mph 24.2 mph 0.04 in Rain Light Rain
8:56 PM 59.0 °F - 57.0 °F 93% 29.79 in 4.0 mi South 17.3 mph 24.2 mph 0.10 in Rain Rain
9:21 PM 60.1 °F - 57.9 °F 93% 29.76 in 4.0 mi South 13.8 mph 23.0 mph 0.11 in Rain Rain
9:33 PM 60.1 °F - 57.9 °F 93% 29.76 in 2.5 mi South 10.4 mph 21.9 mph 0.20 in Rain Heavy Rain
9:41 PM 60.1 °F - 59.0 °F 96% 29.77 in 1.8 mi South 17.3 mph 24.2 mph 0.31 in Rain Heavy Rain
9:43 PM 60.1 °F - 59.0 °F 96% 29.76 in 1.8 mi SSW 15.0 mph 24.2 mph 0.33 in Rain Heavy Rain
9:48 PM 61.0 °F - 59.0 °F 93% 29.76 in 2.5 mi SSW 16.1 mph 24.2 mph 0.36 in Rain Heavy Rain
9:56 PM 63.0 °F - 60.1 °F 90% 29.76 in 1.5 mi SSW 25.3 mph 34.5 mph 0.54 in Rain Heavy Rain
10:05 PM 63.0 °F - 60.1 °F 90% 29.74 in 3.0 mi South 12.7 mph 32.2 mph 0.05 in Rain Rain
10:13 PM 62.1 °F - 60.1 °F 93% 29.72 in 9.0 mi SSE 11.5 mph - 0.05 in Rain Light Rain
10:41 PM 60.1 °F - 57.9 °F 93% 29.69 in 10.0 mi South 8.1 mph - 0.06 in   Mostly Cloudy
10:56 PM 60.1 °F - 57.9 °F 93% 29.70 in 10.0 mi South 9.2 mph - 0.16 in Rain Light Rain
11:04 PM 60.1 °F - 57.9 °F 93% 29.70 in 10.0 mi South 11.5 mph - 0.00 in   Mostly Cloudy
11:56 PM 61.0 °F - 57.9 °F 90% 29.70 in 10.0 mi SW 15.0 mph - 0.00 in   Mostly Cloudy